GW0655 Weather Reports


time (UTC)temp
C
wind
direction
speed
KPH
gust
KPH
rain 1hr
cm
rain 24hr
cm
rain mn
cm
humidity
%
barometer
mb
20260831170153 33 251 4.8 9.7 0.00 0.00 0.00 54 1018.9
20260831165648 33 305 6.4 9.7 0.00 0.00 0.00 55 1018.9
20260831165145 33 231 1.6 3.2 0.00 0.00 0.00 55 1018.9
20260831164641 33 180 4.8 8.0 0.00 0.00 0.00 54 1018.9
20260831164136 33 222 4.8 8.0 0.00 0.00 0.00 55 1018.9
20260831163631 33 183 4.8 4.8 0.00 0.00 0.00 56 1019.3
20260831163127 32 181 6.4 8.0 0.00 0.00 0.00 59 1018.9
20260831162626 33 215 6.4 9.7 0.00 0.00 0.00 56 1018.9
20260831162124 32 183 4.8 4.8 0.00 0.00 0.00 59 1018.9
20260831161620 32 220 4.8 8.0 0.00 0.00 0.00 60 1018.9
20260831161117 31 235 3.2 4.8 0.00 0.00 0.00 62 1018.9
20260831160615 32 144 4.8 9.7 0.00 0.00 0.00 60 1019.3
20260831160111 32 158 4.8 4.8 0.00 0.00 0.00 61 1018.9
20260831155605 32 271 6.4 8.0 0.00 0.00 0.00 60 1019.3
20260831155101 32 213 4.8 4.8 0.00 0.00 0.00 60 1018.9
20260831154557 32 238 3.2 4.8 0.00 0.00 0.00 59 1018.9
20260831154056 31 223 4.8 4.8 0.00 0.00 0.00 60 1018.9
20260831153555 32 206 6.4 11.3 0.00 0.00 0.00 61 1018.9
20260831153053 31 221 1.6 1.6 0.00 0.00 0.00 65 1018.5
20260831152548 31 78 4.8 4.8 0.00 0.00 0.00 67 1018.9
20260831152043 31 265 1.6 1.6 0.00 0.00 0.00 65 1018.5
20260831151542 31 343 1.6 1.6 0.00 0.00 0.00 65 1018.9
20260831151037 30 142 1.6 3.2 0.00 0.00 0.00 70 1018.9
20260831150532 30 234 9.7 11.3 0.00 0.00 0.00 72 1018.5
20260831150029 29 216 4.8 4.8 0.00 0.00 0.00 74 1018.9
20260831145522 30 207 4.8 4.8 0.00 0.00 0.00 74 1018.9
20260831145019 30 281 1.6 3.2 0.00 0.00 0.00 73 1018.5
20260831144514 29 207 4.8 4.8 0.00 0.00 0.00 76 1018.5
20260831144010 30 187 4.8 4.8 0.00 0.00 0.00 75 1018.9
20260831143504 30 115 1.6 3.2 0.00 0.00 0.00 76 1018.5
20260831143000 29 262 1.6 1.6 0.00 0.00 0.00 77 1018.5
20260831142456 29 180 1.6 1.6 0.00 0.00 0.00 78 1018.5
20260831141955 28 254 3.2 4.8 0.00 0.00 0.00 80 1018.2
20260831141449 29 139 1.6 1.6 0.00 0.00 0.00 79 1018.2
20260831140944 28 172 0.0 0.0 0.00 0.00 0.00 82 1018.9
20260831140439 28 188 4.8 4.8 0.00 0.00 0.00 82 1018.5
20260831135938 27 232 3.2 4.8 0.00 0.00 0.00 84 1018.5
20260831135437 27 174 4.8 4.8 0.00 0.00 0.00 84 1018.5
20260831134932 27 202 8.0 9.7 0.00 0.00 0.00 84 1018.5
20260831134429 27 215 1.6 1.6 0.00 0.00 0.00 85 1018.2
20260831133929 27 251 0.0 0.0 0.00 0.00 0.00 89 1017.9
20260831133429 26 188 1.6 3.2 0.00 0.00 0.00 90 1018.2
20260831132924 26 191 1.6 3.2 0.00 0.00 0.00 91 1017.9
20260831132419 26 222 1.6 1.6 0.00 0.00 0.00 92 1018.2
20260831131919 26 226 1.6 1.6 0.00 0.00 0.00 93 1017.9
20260831131414 25 236 0.0 0.0 0.00 0.00 0.00 93 1017.9
20260831130910 25 210 3.2 3.2 0.00 0.00 0.00 93 1017.9
20260831130405 25 247 0.0 0.0 0.00 0.00 0.00 94 1017.9
20260831125904 25 207 1.6 1.6 0.00 0.00 0.00 94 1017.9
20260831125359 25 264 0.0 1.6 0.00 0.00 0.00 94 1017.9
20260831124854 25 242 0.0 0.0 0.00 0.00 0.00 94 1017.9
20260831124350 25 222 0.0 0.0 0.00 0.00 0.00 94 1017.9
20260831123845 25 241 0.0 0.0 0.00 0.00 0.00 94 1017.9
20260831123344 25 232 0.0 0.0 0.00 0.00 0.00 94 1017.5
20260831122839 25 239 0.0 0.0 0.00 0.00 0.00 94 1017.9
20260831122335 25 253 0.0 0.0 0.00 0.00 0.00 93 1017.9
20260831121834 25 242 0.0 0.0 0.00 0.00 0.00 93 1017.5
20260831121331 25 246 0.0 1.6 0.00 0.00 0.00 93 1017.5
20260831120826 25 237 0.0 0.0 0.00 0.00 0.00 93 1017.5
20260831120320 25 242 0.0 0.0 0.00 0.00 0.00 93 1017.5
20260831115815 25 248 0.0 1.6 0.00 0.00 0.00 92 1017.2
20260831115312 25 253 0.0 0.0 0.00 0.00 0.00 92 1017.2
20260831114810 25 234 0.0 1.6 0.00 0.00 0.00 92 1017.2
20260831114304 25 231 1.6 3.2 0.00 0.00 0.00 92 1017.5
20260831113800 25 205 3.2 3.2 0.00 0.00 0.00 92 1017.5
20260831113259 25 213 0.0 1.6 0.00 0.00 0.00 91 1017.5
20260831112754 25 245 1.6 1.6 0.00 0.00 0.00 91 1017.5
20260831112249 25 218 1.6 3.2 0.00 0.00 0.00 91 1017.5
20260831111745 26 232 0.0 0.0 0.00 0.00 0.00 91 1017.5
20260831111241 26 234 0.0 1.6 0.00 0.00 0.00 91 1017.5
20260831110737 26 225 1.6 1.6 0.00 0.00 0.00 91 1017.2
20260831110231 26 240 0.0 1.6 0.00 0.00 0.00 91 1017.2
20260831105730 25 242 1.6 1.6 0.00 0.00 0.00 91 1017.5
20260831105226 25 215 0.0 0.0 0.00 0.00 0.00 91 1017.5
20260831104720 25 183 3.2 3.2 0.00 0.00 0.00 91 1017.5
20260831104217 25 232 0.0 0.0 0.00 0.00 0.00 91 1017.5
20260831103717 25 169 0.0 0.0 0.00 0.00 0.00 91 1017.5
20260831103213 25 204 1.6 3.2 0.00 0.00 0.00 90 1017.5
20260831102712 25 178 3.2 3.2 0.00 0.00 0.00 90 1017.2
20260831102207 26 221 1.6 1.6 0.00 0.00 0.00 90 1017.2
20260831101703 26 252 0.0 1.6 0.00 0.00 0.00 90 1017.2
20260831101158 26 253 0.0 0.0 0.00 0.00 0.00 90 1017.2
20260831100654 26 239 0.0 0.0 0.00 0.00 0.00 89 1017.2
20260831100150 26 215 3.2 3.2 0.00 0.00 0.00 89 1017.5
20260831095648 26 201 4.8 4.8 0.00 0.00 0.00 89 1017.2
20260831095143 26 257 0.0 0.0 0.00 0.00 0.00 88 1017.2
20260831094638 26 199 3.2 3.2 0.00 0.00 0.00 88 1017.5
20260831094135 26 261 1.6 1.6 0.00 0.00 0.00 88 1017.2
20260831093630 26 248 1.6 1.6 0.00 0.00 0.00 88 1017.5
20260831093126 26 212 4.8 4.8 0.00 0.00 0.00 88 1017.2
20260831092622 26 207 4.8 4.8 0.00 0.00 0.00 88 1017.5
20260831092117 26 195 1.6 1.6 0.00 0.00 0.00 87 1017.2
20260831091617 26 154 1.6 1.6 0.00 0.00 0.00 87 1017.2
20260831091112 26 176 3.2 3.2 0.00 0.00 0.00 87 1017.2
20260831090608 26 239 3.2 3.2 0.00 0.00 0.00 87 1017.2
20260831090104 26 232 1.6 1.6 0.00 0.00 0.00 87 1017.2
20260831085559 26 251 0.0 1.6 0.00 0.00 0.00 87 1017.2
20260831085054 26 170 3.2 3.2 0.00 0.00 0.00 87 1017.2
20260831084550 26 249 1.6 1.6 0.00 0.00 0.00 87 1017.2
20260831084046 26 244 3.2 3.2 0.00 0.00 0.00 86 1017.2
20260831083542 26 201 1.6 3.2 0.00 0.00 0.00 86 1017.2
20260831083036 26 255 1.6 1.6 0.00 0.00 0.00 86 1017.2
20260831082535 26 245 3.2 3.2 0.00 0.00 0.00 86 1017.5
20260831082031 26 152 0.0 1.6 0.00 0.00 0.00 85 1017.5
20260831081526 26 256 0.0 1.6 0.00 0.00 0.00 85 1017.2
20260831081022 26 243 3.2 3.2 0.00 0.00 0.00 85 1017.5
20260831080516 26 206 3.2 3.2 0.00 0.00 0.00 84 1017.2
20260831080012 26 204 4.8 4.8 0.00 0.00 0.00 84 1017.2
20260831075507 26 175 3.2 3.2 0.00 0.00 0.00 84 1017.5
20260831074957 27 207 4.8 4.8 0.00 0.00 0.00 83 1017.2
20260831074456 27 185 1.6 1.6 0.00 0.00 0.00 83 1017.2
20260831073951 27 203 4.8 9.7 0.00 0.00 0.00 83 1017.5
20260831073450 27 251 1.6 1.6 0.00 0.00 0.00 82 1017.5
20260831072949 27 244 3.2 3.2 0.00 0.00 0.00 81 1017.5
20260831072446 27 206 3.2 3.2 0.00 0.00 0.00 81 1017.5
20260831071942 27 250 0.0 1.6 0.00 0.00 0.00 80 1017.2
20260831071441 27 235 1.6 1.6 0.00 0.00 0.00 80 1017.2
20260831070936 27 220 1.6 3.2 0.00 0.00 0.00 79 1017.5
20260831070435 27 158 6.4 8.0 0.00 0.00 0.00 78 1017.5
20260831065935 27 203 3.2 3.2 0.00 0.00 0.00 78 1017.2
20260831065433 27 207 1.6 1.6 0.00 0.00 0.00 77 1017.5
20260831064928 27 193 1.6 1.6 0.00 0.00 0.00 77 1017.5
20260831064423 27 248 1.6 1.6 0.00 0.00 0.00 76 1017.5
20260831063919 27 190 1.6 3.2 0.00 0.00 0.00 76 1017.5
20260831063414 27 207 4.8 4.8 0.00 0.00 0.00 76 1017.5
20260831062913 27 206 3.2 3.2 0.00 0.00 0.00 75 1017.5
20260831062409 28 213 3.2 4.8 0.00 0.00 0.00 75 1017.5
20260831061908 28 177 4.8 4.8 0.00 0.00 0.00 74 1017.9
20260831061407 28 183 3.2 3.2 0.00 0.00 0.00 74 1017.5
20260831060903 28 234 1.6 1.6 0.00 0.00 0.00 73 1017.5
20260831060358 28 215 3.2 4.8 0.00 0.00 0.00 73 1017.2
20260831055857 28 230 3.2 4.8 0.00 0.00 0.00 73 1017.5
20260831055352 28 175 6.4 8.0 0.00 0.00 0.00 72 1017.2
20260831054848 28 175 3.2 3.2 0.00 0.00 0.00 72 1017.2
20260831054343 28 229 1.6 3.2 0.00 0.00 0.00 71 1017.2
20260831053842 28 259 3.2 3.2 0.00 0.00 0.00 71 1017.5
20260831053340 28 238 4.8 4.8 0.00 0.00 0.00 71 1017.2
20260831052835 28 247 0.0 1.6 0.00 0.00 0.00 70 1017.2
20260831052334 28 221 1.6 1.6 0.00 0.00 0.00 69 1017.2
20260831051833 29 208 4.8 8.0 0.00 0.00 0.00 69 1017.2
20260831051331 29 242 1.6 1.6 0.00 0.00 0.00 68 1016.9
20260831050826 29 224 3.2 3.2 0.00 0.00 0.00 68 1017.2
20260831050326 29 192 3.2 4.8 0.00 0.00 0.00 67 1017.2
20260831045820 29 286 0.0 0.0 0.00 0.00 0.00 67 1016.9
20260831045314 30 175 4.8 4.8 0.00 0.00 0.00 67 1016.9
20260831044809 30 199 6.4 9.7 0.00 0.00 0.00 66 1017.2
20260831044304 30 140 1.6 3.2 0.00 0.00 0.00 65 1016.9
20260831043800 30 218 8.0 12.9 0.00 0.00 0.00 65 1017.2
20260831043254 30 169 4.8 4.8 0.00 0.00 0.00 64 1016.9
20260831042754 30 172 3.2 3.2 0.00 0.00 0.00 63 1016.9
20260831042249 30 100 3.2 3.2 0.00 0.00 0.00 63 1016.9
20260831041744 30 229 3.2 3.2 0.00 0.00 0.00 62 1016.9
20260831041244 30 181 1.6 3.2 0.00 0.00 0.00 61 1016.9
20260831040739 30 191 4.8 8.0 0.00 0.00 0.00 61 1016.9
20260831040238 30 189 4.8 8.0 0.00 0.00 0.00 61 1016.9
20260831035737 30 150 4.8 4.8 0.00 0.00 0.00 60 1016.9
20260831035236 31 188 4.8 4.8 0.00 0.00 0.00 59 1016.9
20260831034735 31 230 4.8 4.8 0.00 0.00 0.00 59 1016.5
20260831034231 31 139 4.8 8.0 0.00 0.00 0.00 59 1016.5
20260831033726 31 217 3.2 8.0 0.00 0.00 0.00 59 1016.5
20260831033226 31 257 3.2 3.2 0.00 0.00 0.00 59 1016.5
20260831032721 31 200 3.2 4.8 0.00 0.00 0.00 59 1016.5
20260831032216 31 215 4.8 4.8 0.00 0.00 0.00 59 1016.5
20260831031711 31 226 3.2 3.2 0.00 0.00 0.00 58 1016.2
20260831031205 31 135 4.8 8.0 0.00 0.00 0.00 58 1016.5
20260831030704 31 197 3.2 4.8 0.00 0.00 0.00 58 1015.8
20260831030203 31 242 1.6 3.2 0.00 0.00 0.00 58 1016.2
20260831025702 31 199 3.2 4.8 0.00 0.00 0.00 57 1016.2
20260831025157 31 169 6.4 8.0 0.00 0.00 0.00 57 1015.8
20260831024653 31 125 3.2 3.2 0.00 0.00 0.00 57 1015.8
20260831024151 31 211 6.4 9.7 0.00 0.00 0.00 57 1015.8
20260831023649 31 182 0.0 1.6 0.00 0.00 0.00 57 1015.8
20260831023143 31 134 11.3 17.7 0.00 0.00 0.00 57 1015.8
20260831022633 31 170 1.6 1.6 0.00 0.00 0.00 57 1015.5
20260831022128 31 113 4.8 4.8 0.00 0.00 0.00 56 1015.2
20260831021627 31 102 1.6 3.2 0.00 0.00 0.00 57 1015.2
20260831021122 31 115 1.6 8.0 0.00 0.00 0.00 57 1015.5
20260831020618 32 359 1.6 3.2 0.00 0.00 0.00 57 1015.2
20260831020113 32 162 4.8 8.0 0.00 0.00 0.00 57 1015.2
20260831015609 32 109 4.8 8.0 0.00 0.00 0.00 56 1015.2
20260831015109 32 148 8.0 11.3 0.00 0.00 0.00 56 1015.2
20260831014603 32 122 8.0 11.3 0.00 0.00 0.00 56 1014.8
20260831014059 32 170 12.9 12.9 0.00 0.00 0.00 55 1014.8
20260831013555 32 154 4.8 8.0 0.00 0.00 0.00 55 1014.5
20260831013054 32 39 6.4 8.0 0.00 0.00 0.00 54 1014.8
20260831012549 33 258 4.8 9.7 0.00 0.00 0.00 52 1014.5
20260831012044 33 160 11.3 14.5 0.00 0.00 0.00 48 1014.5
20260831011543 33 137 11.3 16.1 0.00 0.00 0.00 44 1014.5
20260831011039 33 153 0.0 0.0 0.00 0.00 0.00 43 1014.1
20260831010534 34 160 0.0 1.6 0.00 0.00 0.00 43 1014.1
20260831010030 34 212 0.0 0.0 0.00 0.00 0.00 42 1014.1
20260831005525 35 189 0.0 0.0 0.00 0.00 0.00 41 1014.1
20260831005024 35 107 0.0 0.0 0.00 0.00 0.00 41 1014.5
20260831004521 35 223 1.6 1.6 0.00 0.00 0.00 40 1014.5
20260831004016 35 152 8.0 8.0 0.00 0.00 0.00 40 1014.1
20260831003512 35 167 3.2 3.2 0.00 0.00 0.00 40 1014.1
20260831003008 35 111 4.8 4.8 0.00 0.00 0.00 40 1013.8
20260831002506 35 230 0.0 1.6 0.00 0.00 0.00 40 1014.1
20260831002001 35 111 1.6 1.6 0.00 0.00 0.00 40 1014.1
20260831001456 35 114 4.8 8.0 0.00 0.00 0.00 39 1014.1
20260831000953 35 162 4.8 8.0 0.00 0.00 0.00 39 1014.1
20260831000449 35 169 4.8 4.8 0.00 0.00 0.00 40 1014.1
20260830235947 36 222 0.0 1.6 0.00 0.00 0.00 40 1013.8
20260830235442 36 166 4.8 4.8 0.00 0.00 0.00 40 1014.1
20260830234938 36 221 3.2 4.8 0.00 0.00 0.00 39 1014.1
20260830234432 36 227 3.2 4.8 0.00 0.00 0.00 39 1014.1
20260830233928 36 148 3.2 3.2 0.00 0.00 0.00 39 1014.1
20260830233424 36 134 11.3 12.9 0.00 0.00 0.00 39 1014.5
20260830232919 36 60 3.2 3.2 0.00 0.00 0.00 39 1014.1
20260830232415 36 194 4.8 8.0 0.00 0.00 0.00 39 1014.5
20260830231912 37 204 3.2 3.2 0.00 0.00 0.00 39 1014.1
20260830231406 36 174 0.0 1.6 0.00 0.00 0.00 39 1014.1
20260830230906 36 248 1.6 1.6 0.00 0.00 0.00 40 1014.1
20260830230401 36 193 1.6 3.2 0.00 0.00 0.00 39 1014.1
20260830225900 36 59 0.0 1.6 0.00 0.00 0.00 40 1014.1
20260830225356 36 149 8.0 12.9 0.00 0.00 0.00 40 1014.1
20260830224850 36 131 8.0 11.3 0.00 0.00 0.00 40 1014.5
20260830224344 37 248 1.6 3.2 0.00 0.00 0.00 39 1014.1
20260830223841 37 156 4.8 8.0 0.00 0.00 0.00 38 1014.1
20260830223337 37 45 0.0 0.0 0.00 0.00 0.00 38 1014.1
20260830222836 37 284 1.6 1.6 0.00 0.00 0.00 38 1014.1
20260830222332 37 138 3.2 4.8 0.00 0.00 0.00 39 1014.5
20260830221827 37 132 8.0 9.7 0.00 0.00 0.00 37 1014.1
20260830221324 37 125 3.2 3.2 0.00 0.00 0.00 37 1014.5
20260830220824 37 337 1.6 3.2 0.00 0.00 0.00 38 1014.5
20260830220324 38 87 9.7 11.3 0.00 0.00 0.00 37 1014.1
20260830215821 37 217 4.8 8.0 0.00 0.00 0.00 36 1014.5
20260830215316 37 212 8.0 11.3 0.00 0.00 0.00 37 1014.1
20260830214811 38 149 8.0 9.7 0.00 0.00 0.00 35 1014.5
20260830214307 38 263 3.2 3.2 0.00 0.00 0.00 36 1014.5
20260830213806 38 220 8.0 12.9 0.00 0.00 0.00 35 1014.5
20260830213301 38 194 4.8 4.8 0.00 0.00 0.00 35 1014.5
20260830212757 38 261 4.8 8.0 0.00 0.00 0.00 35 1014.5
20260830212253 37 174 0.0 1.6 0.00 0.00 0.00 37 1014.5
20260830211752 37 266 4.8 4.8 0.00 0.00 0.00 37 1015.2
20260830211251 37 196 3.2 3.2 0.00 0.00 0.00 37 1014.8
20260830210747 37 271 1.6 3.2 0.00 0.00 0.00 39 1014.8
20260830210246 37 223 6.4 8.0 0.00 0.00 0.00 38 1015.2
20260830205744 37 237 4.8 4.8 0.00 0.00 0.00 39 1015.2
20260830205239 37 223 6.4 9.7 0.00 0.00 0.00 39 1015.5
20260830204734 37 203 8.0 9.7 0.00 0.00 0.00 38 1015.5
20260830204232 37 237 3.2 4.8 0.00 0.00 0.00 39 1015.5
20260830203729 38 204 6.4 8.0 0.00 0.00 0.00 38 1015.5
20260830203219 38 249 1.6 1.6 0.00 0.00 0.00 37 1015.8
20260830202718 37 270 3.2 3.2 0.00 0.00 0.00 40 1015.8
20260830202214 37 9 3.2 3.2 0.00 0.00 0.00 40 1015.8
20260830201713 36 238 6.4 8.0 0.00 0.00 0.00 41 1016.2
20260830201209 36 264 0.0 1.6 0.00 0.00 0.00 44 1016.2
20260830200704 35 228 4.8 8.0 0.00 0.00 0.00 45 1016.2
20260830200203 37 221 6.4 9.7 0.00 0.00 0.00 40 1016.2
20260830195659 37 132 9.7 11.3 0.00 0.00 0.00 42 1016.2
20260830195156 37 261 3.2 3.2 0.00 0.00 0.00 41 1016.2
20260830194655 37 215 8.0 11.3 0.00 0.00 0.00 41 1016.5
20260830194150 36 237 1.6 1.6 0.00 0.00 0.00 45 1016.2
20260830193644 36 101 4.8 8.0 0.00 0.00 0.00 44 1016.9
20260830193139 36 272 4.8 4.8 0.00 0.00 0.00 44 1016.5
20260830192634 36 179 8.0 11.3 0.00 0.00 0.00 44 1016.9
20260830192129 35 188 1.6 1.6 0.00 0.00 0.00 46 1016.9
20260830191625 35 358 1.6 1.6 0.00 0.00 0.00 46 1016.9
20260830191120 36 138 8.0 11.3 0.00 0.00 0.00 42 1017.2
20260830190615 37 354 3.2 3.2 0.00 0.00 0.00 45 1017.2
20260830190109 36 216 1.6 1.6 0.00 0.00 0.00 45 1017.2
20260830185603 35 153 4.8 8.0 0.00 0.00 0.00 46 1017.2
20260830185059 35 293 1.6 1.6 0.00 0.00 0.00 46 1017.5
20260830184558 36 284 3.2 4.8 0.00 0.00 0.00 45 1017.5
20260830184052 35 194 9.7 12.9 0.00 0.00 0.00 47 1017.5
20260830183547 35 208 6.4 9.7 0.00 0.00 0.00 46 1017.5
20260830183043 35 148 4.8 8.0 0.00 0.00 0.00 48 1017.5
20260830182538 35 226 4.8 4.8 0.00 0.00 0.00 48 1017.9
20260830182034 35 173 3.2 4.8 0.00 0.00 0.00 47 1017.9
20260830181531 35 192 1.6 1.6 0.00 0.00 0.00 49 1018.2
20260830181030 34 73 6.4 9.7 0.00 0.00 0.00 51 1017.9
20260830180529 35 162 6.4 8.0 0.00 0.00 0.00 50 1018.2
20260830180028 33 268 6.4 9.7 0.00 0.00 0.00 50 1018.2
20260830175527 34 165 9.7 14.5 0.00 0.00 0.00 52 1018.2
20260830175023 34 267 3.2 3.2 0.00 0.00 0.00 51 1018.2
20260830174519 33 183 1.6 3.2 0.00 0.00 0.00 53 1018.9
20260830174014 34 233 6.4 9.7 0.00 0.00 0.00 52 1018.5
20260830173509 33 256 1.6 3.2 0.00 0.00 0.00 53 1018.5
20260830173004 33 228 3.2 3.2 0.00 0.00 0.00 54 1018.9
20260830172501 33 245 3.2 3.2 0.00 0.00 0.00 54 1018.9
20260830171956 33 191 6.4 8.0 0.00 0.00 0.00 53 1018.9
20260830171451 34 104 4.8 8.0 0.00 0.00 0.00 51 1019.3
20260830170951 32 249 4.8 4.8 0.00 0.00 0.00 57 1018.9